• In Deutschland
  • Länderverzeichnis
  • Für 7 Tage
  • Wassertemperatur
  • Satellitenkarten
  • Wetterkarte
  • Widgets
  • user-avatar
    Anmelden

    Stündliche Wetter Argenthal

    Heute, 19 Juni, Dienstag

    Zeit Temperatur Niederschläge Wind Luftdruck Luftfeuchtigkeit
    00:00 +15°C° 0 mm 2 m/S 727 mmHg 93%
    01:00 +15°C° 0 mm 2 m/S 727 mmHg 94%
    02:00 +14°C° 0 mm 2 m/S 727 mmHg 94%
    03:00 +14°C° 0 mm 2 m/S 727 mmHg 95%
    04:00 +13°C° 0 mm 1 m/S 727 mmHg 95%
    05:00 +14°C° 0 mm 2 m/S 727 mmHg 93%
    06:00 +15°C° 0 mm 2 m/S 728 mmHg 91%
    07:00 +16°C° 0 mm 2 m/S 728 mmHg 87%
    08:00 +17°C° 0 mm 2 m/S 728 mmHg 82%
    09:00 +18°C° 0 mm 2 m/S 728 mmHg 78%
    10:00 +20°C° 0 mm 2 m/S 729 mmHg 73%
    11:00 +20°C° 0 mm 2 m/S 729 mmHg 72%
    12:00 +20°C° 0 mm 2 m/S 729 mmHg 71%
    13:00 +22°C° 0 mm 1 m/S 729 mmHg 69%
    14:00 +22°C° 0 mm 1 m/S 729 mmHg 69%
    15:00 +22°C° 0 mm 1 m/S 729 mmHg 69%
    16:00 +22°C° 0 mm 1 m/S 729 mmHg 69%
    17:00 +22°C° 0 mm 1 m/S 728 mmHg 72%
    18:00 +22°C° 0 mm 1 m/S 728 mmHg 75%
    19:00 +21°C° 0 mm 1 m/S 728 mmHg 78%
    20:00 +20°C° 0 mm 1 m/S 728 mmHg 82%
    21:00 +19°C° 0 mm 1 m/S 728 mmHg 86%
    22:00 +16°C° 0 mm 1 m/S 728 mmHg 89%
    23:00 +16°C° 0 mm 1 m/S 728 mmHg 90%

    Morgen, 20 Juni, Mittwoch

    Zeit Temperatur Niederschläge Wind Luftdruck Luftfeuchtigkeit
    00:00 +15°C° 0 mm 1 m/S 728 mmHg 91%
    01:00 +15°C° 0 mm 1 m/S 728 mmHg 93%
    02:00 +15°C° 0 mm 1 m/S 728 mmHg 93%
    03:00 +14°C° 0 mm 1 m/S 727 mmHg 93%
    04:00 +13°C° 0 mm 0 m/S 727 mmHg 94%
    05:00 +14°C° 0 mm 0 m/S 727 mmHg 91%
    06:00 +15°C° 0 mm 0 m/S 727 mmHg 89%
    07:00 +17°C° 0 mm 0 m/S 728 mmHg 86%
    08:00 +20°C° 0 mm 1 m/S 728 mmHg 79%
    09:00 +22°C° 0 mm 1 m/S 728 mmHg 72%
    10:00 +24°C° 0 mm 1 m/S 728 mmHg 66%
    11:00 +25°C° 0 mm 1 m/S 727 mmHg 62%
    12:00 +26°C° 0 mm 1 m/S 727 mmHg 58%
    13:00 +28°C° 0 mm 1 m/S 727 mmHg 54%
    14:00 +28°C° 0 mm 1 m/S 727 mmHg 53%
    15:00 +28°C° 0 mm 1 m/S 726 mmHg 52%
    16:00 +28°C° 0 mm 1 m/S 726 mmHg 51%
    17:00 +27°C° 0 mm 1 m/S 726 mmHg 56%
    18:00 +26°C° 0 mm 1 m/S 725 mmHg 62%
    19:00 +25°C° 0 mm 1 m/S 725 mmHg 67%
    20:00 +23°C° 0 mm 1 m/S 725 mmHg 72%
    21:00 +21°C° 0 mm 1 m/S 725 mmHg 78%
    22:00 +19°C° 0 mm 1 m/S 725 mmHg 83%
    23:00 +19°C° 0 mm 1 m/S 725 mmHg 85%

    übermorgen, 21 Juni, Donnerstag

    Zeit Temperatur Niederschläge Wind Luftdruck Luftfeuchtigkeit
    00:00 +18°C° 0 mm 1 m/S 724 mmHg 87%
    01:00 +16°C° 0 mm 1 m/S 724 mmHg 89%
    02:00 +16°C° 0 mm 1 m/S 724 mmHg 90%
    03:00 +16°C° 0 mm 1 m/S 724 mmHg 91%
    04:00 +15°C° 0 mm 1 m/S 723 mmHg 93%
    05:00 +16°C° 0 mm 1 m/S 723 mmHg 90%
    06:00 +18°C° 0 mm 1 m/S 723 mmHg 88%
    07:00 +18°C° 0 mm 2 m/S 723 mmHg 86%
    08:00 +19°C° 0 mm 3 m/S 723 mmHg 80%
    09:00 +20°C° 0 mm 4 m/S 723 mmHg 75%
    10:00 +20°C° 0 mm 5 m/S 724 mmHg 69%
    11:00 +20°C° 0,1 mm 5 m/S 724 mmHg 69%
    12:00 +19°C° 0,1 mm 6 m/S 724 mmHg 69%
    13:00 +17°C° 0,1 mm 6 m/S 724 mmHg 69%
    14:00 +17°C° 0 mm 6 m/S 724 mmHg 64%
    15:00 +17°C° 0 mm 6 m/S 724 mmHg 58%
    16:00 +17°C° 0 mm 6 m/S 725 mmHg 52%
    17:00 +16°C° 0 mm 6 m/S 725 mmHg 54%
    18:00 +15°C° 0 mm 5 m/S 725 mmHg 56%
    19:00 +14°C° 0 mm 4 m/S 726 mmHg 58%
    20:00 +12°C° 0 mm 4 m/S 726 mmHg 62%
    21:00 +11°C° 0 mm 3 m/S 727 mmHg 65%
    22:00 +9°C° 0 mm 3 m/S 727 mmHg 69%
    23:00 +8°C° 0 mm 3 m/S 727 mmHg 74%

    22 Juni, Freitag

    Zeit Temperatur Niederschläge Wind Luftdruck Luftfeuchtigkeit
    00:00 +7°C° 0 mm 3 m/S 728 mmHg 78%
    01:00 +6°C° 0 mm 2 m/S 728 mmHg 83%
    02:00 +6°C° 0 mm 2 m/S 728 mmHg 84%
    03:00 +5°C° 0 mm 2 m/S 728 mmHg 86%
    04:00 +5°C° 0 mm 2 m/S 728 mmHg 88%
    05:00 +5°C° 0 mm 3 m/S 728 mmHg 83%
    06:00 +8°C° 0 mm 3 m/S 728 mmHg 78%
    07:00 +8°C° 0 mm 4 m/S 728 mmHg 72%
    08:00 +10°C° 0 mm 4 m/S 728 mmHg 71%
    09:00 +11°C° 0 mm 4 m/S 728 mmHg 70%
    10:00 +11°C° 0 mm 4 m/S 729 mmHg 69%
    11:00 +12°C° 0,1 mm 4 m/S 729 mmHg 67%
    12:00 +13°C° 0,1 mm 4 m/S 729 mmHg 64%
    13:00 +14°C° 0,1 mm 4 m/S 729 mmHg 62%
    14:00 +14°C° 0,1 mm 4 m/S 729 mmHg 62%
    15:00 +14°C° 0,1 mm 4 m/S 728 mmHg 62%
    16:00 +15°C° 0,1 mm 4 m/S 728 mmHg 62%
    17:00 +14°C° 0,1 mm 4 m/S 728 mmHg 66%
    18:00 +14°C° 0,1 mm 4 m/S 728 mmHg 69%
    19:00 +13°C° 0,1 mm 4 m/S 728 mmHg 73%
    20:00 +11°C° 0 mm 3 m/S 728 mmHg 78%
    21:00 +10°C° 0 mm 2 m/S 729 mmHg 83%
    22:00 +8°C° 0 mm 2 m/S 729 mmHg 88%
    23:00 +8°C° 0 mm 2 m/S 729 mmHg 89%

    23 Juni, Samstag

    Zeit Temperatur Niederschläge Wind Luftdruck Luftfeuchtigkeit
    00:00 +7°C° 0 mm 2 m/S 729 mmHg 91%
    01:00 +7°C° 0 mm 2 m/S 729 mmHg 92%
    02:00 +6°C° 0 mm 2 m/S 729 mmHg 93%
    03:00 +7°C° 0 mm 1 m/S 729 mmHg 93%
    04:00 +7°C° 0 mm 1 m/S 729 mmHg 94%
    05:00 +7°C° 0 mm 2 m/S 729 mmHg 90%
    06:00 +8°C° 0 mm 2 m/S 729 mmHg 87%
    07:00 +9°C° 0 mm 2 m/S 729 mmHg 83%
    08:00 +10°C° 0 mm 2 m/S 729 mmHg 75%
    09:00 +13°C° 0 mm 2 m/S 729 mmHg 67%
    10:00 +14°C° 0 mm 2 m/S 729 mmHg 59%
    11:00 +14°C° 0 mm 3 m/S 729 mmHg 57%
    12:00 +16°C° 0 mm 3 m/S 729 mmHg 55%
    13:00 +17°C° 0 mm 3 m/S 729 mmHg 52%
    14:00 +17°C° 0 mm 3 m/S 729 mmHg 55%
    15:00 +17°C° 0 mm 4 m/S 728 mmHg 58%
    16:00 +17°C° 0 mm 4 m/S 728 mmHg 61%
    17:00 +16°C° 0 mm 3 m/S 728 mmHg 64%
    18:00 +16°C° 0 mm 3 m/S 728 mmHg 67%
    19:00 +14°C° 0 mm 3 m/S 727 mmHg 70%
    20:00 +14°C° 0 mm 2 m/S 728 mmHg 75%
    21:00 +12°C° 0 mm 2 m/S 728 mmHg 80%
    22:00 +10°C° 0 mm 1 m/S 728 mmHg 85%
    23:00 +10°C° 0 mm 1 m/S 728 mmHg 86%

    24 Juni, Sonntag

    Zeit Temperatur Niederschläge Wind Luftdruck Luftfeuchtigkeit
    00:00 +9°C° 0 mm 1 m/S 728 mmHg 88%
    01:00 +8°C° 0 mm 1 m/S 728 mmHg 89%
    02:00 +8°C° 0 mm 1 m/S 727 mmHg 90%
    03:00 +8°C° 0 mm 1 m/S 727 mmHg 91%
    04:00 +7°C° 0 mm 1 m/S 727 mmHg 92%
    05:00 +8°C° 0 mm 1 m/S 727 mmHg 88%
    06:00 +10°C° 0 mm 1 m/S 728 mmHg 84%
    07:00 +11°C° 0 mm 1 m/S 728 mmHg 80%
    08:00 +12°C° 0 mm 2 m/S 728 mmHg 72%
    09:00 +14°C° 0 mm 2 m/S 728 mmHg 65%
    10:00 +15°C° 0 mm 2 m/S 728 mmHg 57%
    11:00 +16°C° 0 mm 2 m/S 728 mmHg 54%
    12:00 +17°C° 0 mm 2 m/S 728 mmHg 52%
    13:00 +18°C° 0 mm 2 m/S 728 mmHg 49%
    14:00 +19°C° 0 mm 3 m/S 728 mmHg 50%
    15:00 +19°C° 0 mm 3 m/S 727 mmHg 51%
    16:00 +19°C° 0 mm 3 m/S 727 mmHg 51%
    17:00 +19°C° 0 mm 3 m/S 727 mmHg 56%
    18:00 +18°C° 0 mm 2 m/S 727 mmHg 61%
    19:00 +17°C° 0 mm 2 m/S 727 mmHg 66%
    20:00 +16°C° 0 mm 2 m/S 727 mmHg 70%
    21:00 +14°C° 0 mm 2 m/S 727 mmHg 75%
    22:00 +12°C° 0 mm 2 m/S 728 mmHg 80%
    23:00 +12°C° 0 mm 2 m/S 728 mmHg 83%
    Mehr zeigen